Data for 01/06/2018

Time Sea-Level Adjusted Pressure Absolute Pressure Temperature Relative Humidity Dew Point   
(mb) (inHg) (mb) (inHg) (C) (F) (%) (C) (F)
00:05 1019 30.09 848 25.04 3 37.5 67 -2.5 27.5
00:10 1019 30.09 848 25.04 3 37.4 68 -2.4 27.7
00:15 1019 30.09 848 25.04 2.9 37.3 68 -2.5 27.6
00:20 1019 30.09 848 25.04 3.2 37.8 62 -3.2 26.2
00:25 1019 30.09 848 25.04 3.7 38.6 63 -2.6 27.3
00:30 1019 30.09 848 25.04 3.5 38.3 65 -2.4 27.6
00:35 1019 30.09 848 25.04 3.3 38 65 -2.6 27.3
00:40 1019 30.09 848 25.04 3.3 38 64 -2.8 26.9
00:45 1019 30.09 848 25.04 3.5 38.3 64 -2.6 27.3
00:50 1019 30.09 848 25.04 3.4 38 64 -2.7 27.1
00:55 1019 30.09 848 25.04 3.5 38.2 64 -2.7 27.2
01:00 1019 30.09 848 25.04 3.4 38.2 63 -2.9 26.8
01:05 1019 30.09 848 25.04 3.5 38.4 62 -3.1 26.5
01:10 1019 30.09 848 25.04 3.6 38.4 64 -2.5 27.5
01:15 1019 30.09 848 25.04 3.3 37.9 65 -2.7 27.2
01:20 1019 30.09 848 25.04 3.2 37.8 66 -2.5 27.4
01:25 1019 30.09 848 25.04 3.1 37.5 66 -2.6 27.2
01:30 1019 30.09 848 25.04 3 37.4 66 -2.6 27.3
01:35 1019 30.09 848 25.04 2.9 37.2 66 -2.7 27.1
01:40 1019 30.09 848 25.04 3 37.4 65 -3 26.7
01:45 1019 30.09 848 25.04 3.2 37.8 62 -3.5 25.7
01:50 1019 30.09 848 25.04 3.6 38.5 59 -3.6 25.5
01:55 1019 30.09 848 25.04 3.9 39 58 -3.7 25.3
02:00 1019 30.09 848 25.04 4.1 39.4 58 -3.3 26.1
02:05 1018 30.06 848 25.04 3.9 39 59 -3.4 25.9
02:10 1018 30.06 848 25.04 3.8 38.8 59 -3.4 25.9
02:15 1018 30.06 848 25.04 3.7 38.7 61 -3.2 26.3
02:20 1018 30.06 848 25.04 3.4 38.2 62 -3.2 26.3
02:25 1018 30.06 848 25.04 3.4 38.2 61 -3.5 25.7
02:30 1018 30.06 847 25.01 3.7 38.6 57 -4 24.8
02:35 1018 30.06 847 25.01 4 39.2 57 -3.7 25.3
02:40 1018 30.06 847 25.01 4.2 39.6 58 -3.4 25.9
02:45 1018 30.06 847 25.01 3.9 39 62 -2.8 26.9
02:50 1018 30.06 847 25.01 3.4 38.1 63 -3 26.7
02:55 1018 30.06 847 25.01 3.1 37.6 66 -2.6 27.3
03:00 1018 30.06 847 25.01 2.6 36.6 68 -2.7 27.2
03:05 1018 30.06 847 25.01 2.5 36.6 66 -3.3 26.1
03:10 1018 30.06 847 25.01 2.9 37.3 64 -3.3 26.1
03:15 1018 30.06 847 25.01 3.1 37.5 65 -2.9 26.8
03:20 1018 30.06 847 25.01 2.9 37.2 64 -3.2 26.2
03:25 1018 30.06 847 25.01 3 37.3 65 -3 26.5
03:30 1018 30.06 847 25.01 2.9 37.3 66 -2.9 26.9
03:35 1018 30.06 847 25.01 2.7 36.8 68 -2.7 27.2
03:40 1018 30.06 847 25.01 2.4 36.4 68 -2.9 26.7
03:45 1018 30.06 847 25.01 2.5 36.4 67 -3 26.6
03:50 1018 30.06 847 25.01 2.4 36.4 68 -2.9 26.8
03:55 1017 30.03 847 25.01 2.4 36.4 67 -3 26.5
04:00 1018 30.06 847 25.01 2.4 36.3 68 -2.9 26.7
04:05 1018 30.06 847 25.01 2.4 36.3 68 -3 26.6
04:10 1018 30.06 847 25.01 2.5 36.5 66 -3.3 26.1
04:15 1017 30.03 847 25.01 2.8 37.1 65 -3.1 26.3
04:20 1017 30.03 847 25.01 3 37.4 63 -3.4 25.8
04:25 1017 30.03 847 25.01 3.3 37.9 62 -3.4 26
04:30 1017 30.03 846 24.98 3.3 38 63 -3.1 26.5
04:35 1017 30.03 846 24.98 3.2 37.8 64 -2.9 26.7
04:40 1017 30.03 846 24.98 3.1 37.6 63 -3.2 26.3
04:45 1017 30.03 846 24.98 3 37.4 65 -3 26.7
04:50 1017 30.03 846 24.98 2.8 37.1 65 -3.1 26.5
04:55 1017 30.03 846 24.98 2.3 36.2 68 -2.9 26.8
05:00 1017 30.03 846 24.98 2.1 35.9 69 -3 26.6
05:05 1017 30.03 846 24.98 2.4 36.3 66 -3.3 26.1
05:10 1017 30.03 846 24.98 2.7 36.9 65 -3.2 26.2
05:15 1017 30.03 846 24.98 2.7 36.8 67 -2.7 27.1
05:20 1017 30.03 846 24.98 2.7 36.9 67 -2.8 27
05:25 1016 30 846 24.98 2.8 37.1 67 -2.8 27
05:30 1016 30 846 24.98 3.2 37.7 63 -3.1 26.4
05:35 1016 30 846 24.98 3.4 38.1 65 -2.5 27.5
05:40 1016 30 846 24.98 2.8 37.1 68 -2.6 27.4
05:45 1016 30 845 24.95 2.8 37 66 -2.9 26.8
05:50 1016 30 845 24.95 3.1 37.6 68 -2.3 27.9
05:55 1016 30 845 24.95 3 37.4 68 -2.3 27.8
06:00 1016 30 845 24.95 2.8 37.1 70 -2.2 28.1
06:05 1016 30 845 24.95 2.4 36.3 71 -2.4 27.7
06:10 1016 30 845 24.95 2.2 36 72 -2.4 27.7
06:15 1016 30 845 24.95 2.1 35.8 73 -2.3 27.9
06:20 1016 30 845 24.95 2.3 36.1 70 -2.5 27.5
06:25 1016 30 845 24.95 2.5 36.5 68 -2.8 27
06:30 1016 30 845 24.95 2.9 37.3 64 -3.1 26.4
06:35 1016 30 845 24.95 3.3 37.9 63 -3.2 26.3
06:40 1016 30 845 24.95 3.4 38.1 63 -3 26.7
06:45 1016 30 845 24.95 3.3 38 64 -2.8 27
06:50 1016 30 845 24.95 3.2 37.7 65 -2.7 27.1
06:55 1016 30 845 24.95 2.9 37.3 66 -2.7 27.1
07:00 1016 30 845 24.95 3.1 37.5 64 -3.1 26.5
07:05 1016 30 845 24.95 3.2 37.8 69 -1.9 28.6
07:10 1016 30 845 24.95 2.2 35.9 73 -2.2 28.1
07:15 1016 30 845 24.95 1.6 34.9 75 -2.4 27.7
07:20 1016 30 845 24.95 1.3 34.4 76 -2.4 27.6
07:25 1016 30 845 24.95 1.3 34.4 76 -2.5 27.5
07:30 1016 30 845 24.95 1.4 34.6 74 -2.6 27.2
07:35 1016 30 845 24.95 1.8 35.2 71 -3 26.6
07:40 1016 30 846 24.98 2.2 35.9 71 -2.6 27.3
07:45 1016 30 845 24.95 2.3 36.2 69 -2.7 27.2
07:50 1016 30 845 24.95 2.3 36.2 69 -2.7 27.1
07:55 1016 30 846 24.98 2.2 36 70 -2.7 27.2
08:00 1016 30 846 24.98 2.2 35.9 72 -2.4 27.7
08:05 1016 30 846 24.98 2.2 35.9 72 -2.3 27.8
08:10 1016 30 846 24.98 2.2 35.9 72 -2.4 27.7
08:15 1016 30 845 24.95 2.1 35.8 71 -2.7 27.2
08:20 1016 30 845 24.95 2.1 35.8 70 -2.8 26.9
08:25 1016 30 845 24.95 2.3 36.2 70 -2.7 27.2
08:30 1016 30 846 24.98 2.6 36.6 68 -2.7 27.1
08:35 1016 30 846 24.98 2.3 36.1 71 -2.5 27.4
08:40 1016 30 846 24.98 2.3 36.1 71 -2.5 27.6
08:45 1017 30.03 846 24.98 2.3 36.1 70 -2.6 27.4
08:50 1017 30.03 846 24.98 2.4 36.3 68 -2.9 26.8
08:55 1017 30.03 846 24.98 2.6 36.8 67 -2.9 26.9
09:00 1017 30.03 846 24.98 2.9 37.2 66 -2.8 26.9
09:05 1017 30.03 846 24.98 3.1 37.6 65 -2.8 27
09:10 1017 30.03 846 24.98 3.3 37.9 64 -2.9 26.9
09:15 1017 30.03 846 24.98 3.6 38.4 61 -3.2 26.2
09:20 1017 30.03 846 24.98 3.9 39 60 -3.2 26.2
09:25 1017 30.03 846 24.98 4 39.2 61 -3 26.7
09:30 1017 30.03 846 24.98 3.9 39 60 -3.1 26.4
09:35 1017 30.03 846 24.98 3.9 39.1 60 -3.1 26.4
09:40 1017 30.03 846 24.98 3.8 38.9 60 -3.2 26.3
09:45 1017 30.03 846 24.98 4 39.2 59 -3.2 26.2
09:50 1017 30.03 846 24.98 4 39.2 59 -3.2 26.2
09:55 1017 30.03 846 24.98 4 39.2 60 -3 26.6
10:00 1017 30.03 846 24.98 4 39.2 61 -2.9 26.8
10:05 1017 30.03 846 24.98 3.8 38.9 63 -2.6 27.3
10:10 1017 30.03 846 24.98 3.8 38.8 63 -2.6 27.3
10:15 1017 30.03 846 24.98 3.5 38.4 66 -2.3 27.8
10:20 1017 30.03 846 24.98 3.4 38.2 67 -2.1 28.2
10:25 1017 30.03 846 24.98 3.2 37.8 69 -1.9 28.5
10:30 1017 30.03 846 24.98 3.1 37.6 70 -1.9 28.6
10:35 1017 30.03 846 24.98 3 37.3 72 -1.6 29.1
10:40 1017 30.03 846 24.98 2.8 37.1 73 -1.6 29.2
10:45 1017 30.03 846 24.98 2.6 36.7 75 -1.3 29.6
10:50 1017 30.03 846 24.98 2.6 36.6 76 -1.2 29.8
10:55 1017 30.03 846 24.98 2.6 36.8 76 -1.2 29.8
11:00 1017 30.03 846 24.98 2.9 37.2 74 -1.3 29.6
11:05 1017 30.03 846 24.98 3 37.4 73 -1.3 29.7
11:10 1017 30.03 846 24.98 3 37.4 72 -1.5 29.3
11:15 1017 30.03 846 24.98 3 37.4 74 -1.1 30
11:20 1017 30.03 846 24.98 2.9 37.3 74 -1.3 29.7
11:25 1017 30.03 846 24.98 3.1 37.6 73 -1.2 29.9
11:30 1017 30.03 846 24.98 3 37.4 76 -0.8 30.5
11:35 1017 30.03 846 24.98 2.6 36.7 77 -0.9 30.3
11:40 1017 30.03 846 24.98 2.5 36.5 77 -1.1 30
11:45 1017 30.03 846 24.98 2.6 36.7 77 -1.1 30
11:50 1017 30.03 846 24.98 2.9 37.2 76 -1 30.2
11:55 1017 30.03 846 24.98 3.1 37.6 73 -1.2 29.8
12:00 1016 30 846 24.98 3.3 38 72 -1.2 29.8
12:05 1016 30 845 24.95 2.9 37.2 74 -1.2 29.9
12:10 1016 30 845 24.95 2.7 36.8 75 -1.4 29.6
12:15 1016 30 845 24.95 2.7 36.8 75 -1.3 29.7
12:20 1016 30 845 24.95 2.6 36.7 76 -1.2 29.8
12:25 1016 30 845 24.95 2.7 36.9 76 -1.1 29.9
12:30 1016 30 845 24.95 2.8 37.1 75 -1.1 30.1
12:35 1016 30 845 24.95 2.9 37.3 75 -1.1 30
12:40 1016 30 845 24.95 3.3 38 73 -1.1 30
12:45 1016 30 845 24.95 3.2 37.8 74 -1 30.1
12:50 1016 30 845 24.95 3.2 37.8 73 -1.2 29.8
12:55 1015 29.97 845 24.95 3.1 37.5 72 -1.4 29.4
13:00 1016 30 845 24.95 3.3 38 70 -1.6 29.2
13:05 1015 29.97 845 24.95 3.6 38.4 71 -1.3 29.7
13:10 1015 29.97 845 24.95 3.6 38.4 72 -1.1 30.1
13:15 1016 30 845 24.95 3.8 38.9 70 -1.2 29.8
13:20 1015 29.97 845 24.95 4.1 39.4 69 -1 30.2
13:25 1016 30 845 24.95 4 39.2 69 -1.2 29.9
13:30 1016 30 845 24.95 4 39.1 70 -1 30.3
13:35 1016 30 845 24.95 3.7 38.7 71 -1.1 29.9
13:40 1016 30 845 24.95 3.9 39 70 -1.1 30.1
13:45 1016 30 845 24.95 3.8 38.9 71 -1 30.1
13:50 1016 30 845 24.95 3.3 38 72 -1.2 29.9
13:55 1016 30 845 24.95 3.2 37.8 72 -1.3 29.7
14:00 1016 30 845 24.95 3.5 38.3 70 -1.5 29.4
14:05 1016 30 845 24.95 4 39.2 68 -1.3 29.6
14:10 1016 30 846 24.98 4.1 39.4 68 -1.2 29.8
14:15 1016 30 846 24.98 4.1 39.4 68 -1.3 29.7
14:20 1016 30 846 24.98 4 39.3 68 -1.3 29.7
14:25 1016 30 846 24.98 3.9 39.1 69 -1.3 29.7
14:30 1016 30 846 24.98 3.8 38.8 70 -1.3 29.7
14:35 1016 30 846 24.98 3.6 38.6 69 -1.5 29.4
14:40 1016 30 846 24.98 3.6 38.5 69 -1.5 29.4
14:45 1016 30 846 24.98 3.7 38.6 67 -1.9 28.6
14:50 1016 30 846 24.98 3.9 39.1 66 -1.8 28.7
14:55 1016 30 846 24.98 4.3 39.7 64 -1.9 28.7
15:00 1016 30 846 24.98 4.5 40.1 65 -1.4 29.4
15:05 1016 30 846 24.98 4 39.3 67 -1.5 29.3
15:10 1016 30 846 24.98 3.4 38.1 70 -1.5 29.3
15:15 1016 30 846 24.98 3 37.5 71 -1.7 29
15:20 1016 30 846 24.98 3 37.3 71 -1.8 28.8
15:25 1016 30 845 24.95 3 37.5 71 -1.7 28.9
15:30 1016 30 846 24.98 3 37.4 71 -1.7 28.9
15:35 1016 30 846 24.98 3 37.3 71 -1.9 28.6
15:40 1016 30 846 24.98 2.9 37.2 70 -2.1 28.3
15:45 1016 30 846 24.98 2.8 37 70 -2.2 28
15:50 1017 30.03 846 24.98 2.7 36.9 69 -2.5 27.6
15:55 1016 30 846 24.98 2.7 36.9 69 -2.4 27.6
16:00 1016 30 846 24.98 2.7 36.8 68 -2.5 27.4
16:05 1016 30 846 24.98 2.7 36.9 68 -2.7 27.2
16:10 1016 30 846 24.98 2.8 37 67 -2.7 27.2
16:15 1016 30 846 24.98 2.8 37.1 67 -2.7 27.1
16:20 1017 30.03 846 24.98 2.8 37 66 -2.8 26.9
16:25 1017 30.03 846 24.98 2.8 37.1 64 -3.2 26.2
16:30 1017 30.03 846 24.98 2.9 37.2 64 -3.2 26.2
16:35 1017 30.03 846 24.98 3 37.3 63 -3.5 25.8
16:40 1017 30.03 846 24.98 3.1 37.6 61 -3.6 25.4
16:45 1017 30.03 846 24.98 3.1 37.7 63 -3.2 26.2
16:50 1017 30.03 846 24.98 2.9 37.3 61 -3.8 25.2
16:55 1017 30.03 846 24.98 3.1 37.7 60 -4 24.8
17:00 1017 30.03 846 24.98 3.3 38 58 -4.2 24.5
17:05 1017 30.03 846 24.98 3.6 38.4 58 -4 24.9
17:10 1017 30.03 846 24.98 3.6 38.4 58 -3.9 25
17:15 1017 30.03 846 24.98 3.5 38.3 60 -3.6 25.5
17:20 1017 30.03 846 24.98 3.5 38.3 59 -3.9 25.1
17:25 1017 30.03 846 24.98 3.6 38.5 59 -3.6 25.6
17:30 1017 30.03 846 24.98 3.6 38.5 60 -3.5 25.8
17:35 1017 30.03 846 24.98 3.6 38.4 61 -3.2 26.2
17:40 1017 30.03 846 24.98 3.5 38.3 62 -3.1 26.4
17:45 1017 30.03 846 24.98 3.4 38.2 63 -3 26.6
17:50 1017 30.03 846 24.98 3.3 37.9 63 -3 26.6
17:55 1017 30.03 847 25.01 3 37.5 65 -2.9 26.8
18:00 1017 30.03 847 25.01 2.9 37.2 65 -3 26.7
18:05 1017 30.03 847 25.01 2.9 37.3 63 -3.4 25.8
18:10 1017 30.03 847 25.01 3.1 37.6 62 -3.4 26
18:15 1017 30.03 847 25.01 3.2 37.7 59 -4.1 24.6
18:20 1017 30.03 847 25.01 3.2 37.8 60 -3.9 25
18:25 1017 30.03 847 25.01 3.2 37.8 60 -3.8 25.2
18:30 1017 30.03 847 25.01 3.1 37.5 60 -3.9 25
18:35 1018 30.06 847 25.01 3.1 37.6 60 -3.9 25
18:40 1018 30.06 847 25.01 3.1 37.6 60 -3.9 25
18:45 1018 30.06 847 25.01 3.1 37.6 60 -4 24.8
18:50 1018 30.06 847 25.01 3.1 37.7 59 -4.1 24.6
18:55 1018 30.06 847 25.01 3.2 37.8 59 -3.9 24.9
19:00 1018 30.06 847 25.01 3.2 37.7 60 -3.8 25.1
19:05 1018 30.06 847 25.01 3.1 37.6 60 -4 24.8
19:10 1018 30.06 847 25.01 3 37.4 62 -3.7 25.4
19:15 1018 30.06 847 25.01 3 37.3 62 -3.6 25.5
19:20 1018 30.06 847 25.01 2.9 37.2 62 -3.7 25.3
19:25 1018 30.06 847 25.01 2.9 37.3 62 -3.7 25.4
19:30 1018 30.06 847 25.01 2.9 37.2 61 -3.8 25.2
19:35 1018 30.06 847 25.01 2.9 37.2 62 -3.7 25.3
19:40 1018 30.06 847 25.01 2.9 37.2 63 -3.6 25.5
19:45 1018 30.06 847 25.01 2.8 37.1 63 -3.5 25.7
19:50 1018 30.06 847 25.01 2.7 36.8 64 -3.5 25.7
19:55 1018 30.06 847 25.01 2.5 36.6 64 -3.5 25.7
20:00 1018 30.06 847 25.01 2.5 36.4 64 -3.6 25.5
20:05 1018 30.06 847 25.01 2.4 36.3 65 -3.6 25.5
20:10 1018 30.06 847 25.01 2.3 36.2 65 -3.6 25.5
20:15 1018 30.06 847 25.01 2.3 36.1 65 -3.6 25.6
20:20 1018 30.06 847 25.01 2.3 36.1 64 -3.8 25.1
20:25 1018 30.06 847 25.01 2.3 36.2 64 -3.8 25.1
20:30 1018 30.06 847 25.01 2.3 36.2 63 -3.9 25
20:35 1018 30.06 847 25.01 2.3 36.1 64 -3.8 25.1
20:40 1018 30.06 847 25.01 2.3 36.1 63 -4 24.8
20:45 1018 30.06 847 25.01 2.4 36.3 62 -4.1 24.7
20:50 1018 30.06 847 25.01 2.4 36.3 62 -4.1 24.6
20:55 1018 30.06 847 25.01 2.4 36.3 62 -4.2 24.5
21:00 1018 30.06 847 25.01 2.4 36.3 62 -4.2 24.4
21:05 1018 30.06 847 25.01 2.3 36.2 62 -4.3 24.3
21:10 1018 30.06 847 25.01 2.4 36.3 61 -4.4 24.1
21:15 1018 30.06 847 25.01 2.4 36.3 61 -4.4 24
21:20 1018 30.06 847 25.01 2.4 36.4 61 -4.4 24.1
21:25 1018 30.06 847 25.01 2.4 36.4 60 -4.5 23.8
21:30 1018 30.06 847 25.01 2.5 36.5 60 -4.5 23.8
21:35 1018 30.06 847 25.01 2.6 36.7 59 -4.7 23.6
21:40 1018 30.06 847 25.01 2.7 36.9 58 -4.6 23.7
21:45 1018 30.06 847 25.01 2.8 37 58 -4.6 23.7
21:50 1018 30.06 847 25.01 2.7 36.9 59 -4.6 23.7
21:55 1018 30.06 848 25.04 2.7 36.8 60 -4.4 24.1
22:00 1018 30.06 848 25.04 2.4 36.3 62 -4.1 24.7
22:05 1018 30.06 848 25.04 1.9 35.3 64 -4.2 24.4
22:10 1018 30.06 848 25.04 1.7 35.1 65 -4.2 24.4
22:15 1018 30.06 848 25.04 1.6 34.9 65 -4.3 24.3
22:20 1019 30.09 848 25.04 1.5 34.7 64 -4.5 23.9
22:25 1019 30.09 848 25.04 1.6 34.9 63 -4.6 23.8
22:30 1019 30.09 848 25.04 1.6 34.9 63 -4.7 23.6
22:35 1019 30.09 848 25.04 1.7 35 62 -4.8 23.4
22:40 1019 30.09 848 25.04 1.7 35.1 63 -4.5 23.8
22:45 1019 30.09 848 25.04 1.6 34.9 64 -4.5 23.9
22:50 1019 30.09 848 25.04 1.5 34.7 64 -4.6 23.7
22:55 1019 30.09 848 25.04 1.5 34.7 64 -4.6 23.8
23:00 1019 30.09 848 25.04 1.4 34.6 64 -4.6 23.8
23:05 1019 30.09 848 25.04 1.3 34.3 65 -4.7 23.6
23:10 1018 30.06 848 25.04 1.2 34.1 65 -4.7 23.6
23:15 1018 30.06 848 25.04 1.1 33.9 64 -5 23
23:20 1018 30.06 848 25.04 1 33.8 65 -5 23.1
23:25 1018 30.06 848 25.04 0.9 33.6 65 -5 22.9
23:30 1018 30.06 848 25.04 0.9 33.7 64 -5.2 22.7
23:35 1018 30.06 848 25.04 1 33.9 63 -5.2 22.6
23:40 1018 30.06 848 25.04 1.1 33.9 64 -5.1 22.8
23:45 1018 30.06 847 25.01 1.1 34 61 -5.5 22.1
23:50 1018 30.06 847 25.01 1.3 34.3 62 -5.3 22.5
23:55 1018 30.06 847 25.01 1.3 34.3 61 -5.4 22.2
24:00 1018 30.06 847 25.01 1.3 34.4 61 -5.5 22.2